Year,Month,Day,Hour,Minute,Value (Times are PST for windgust in km/hr)
2010,07,11,00,00,4.80
2010,07,11,00,01,3.20
2010,07,11,00,02,3.20
2010,07,11,00,03,4.80
2010,07,11,00,04,4.80
2010,07,11,00,05,8.10
2010,07,11,00,06,8.10
2010,07,11,00,07,8.10
2010,07,11,00,08,8.10
2010,07,11,00,09,6.40
2010,07,11,00,10,6.40
2010,07,11,00,11,8.10
2010,07,11,00,12,6.40
2010,07,11,00,13,8.10
2010,07,11,00,14,8.10
2010,07,11,00,15,8.10
2010,07,11,00,16,4.80
2010,07,11,00,17,4.80
2010,07,11,00,18,6.40
2010,07,11,00,19,4.80
2010,07,11,00,20,3.20
2010,07,11,00,21,4.80
2010,07,11,00,22,4.80
2010,07,11,00,23,4.80
2010,07,11,00,24,4.80
2010,07,11,00,25,4.80
2010,07,11,00,26,4.80
2010,07,11,00,27,4.80
2010,07,11,00,28,3.20
2010,07,11,00,29,3.20
2010,07,11,00,31,1.60
2010,07,11,00,32,1.60
2010,07,11,00,33,1.60
2010,07,11,00,34,3.20
2010,07,11,00,35,1.60
2010,07,11,00,36,1.60
2010,07,11,00,37,1.60
2010,07,11,00,39,1.60
2010,07,11,00,40,3.20
2010,07,11,00,41,4.80
2010,07,11,00,42,1.60
2010,07,11,00,44,4.80
2010,07,11,00,45,4.80
2010,07,11,00,46,6.40
2010,07,11,00,47,4.80
2010,07,11,00,48,3.20
2010,07,11,00,49,4.80
2010,07,11,00,50,4.80
2010,07,11,00,51,4.80
2010,07,11,00,52,6.40
2010,07,11,00,53,6.40
2010,07,11,00,54,6.40
2010,07,11,00,55,6.40
2010,07,11,00,56,6.40
2010,07,11,00,57,6.40
2010,07,11,00,58,6.40
2010,07,11,00,59,4.80
2010,07,11,01,00,4.80
2010,07,11,01,01,3.20
2010,07,11,01,02,3.20
2010,07,11,01,03,3.20
2010,07,11,01,04,1.60
2010,07,11,01,05,3.20
2010,07,11,01,06,1.60
2010,07,11,02,04,1.60
2010,07,11,02,05,1.60
2010,07,11,02,06,1.60
2010,07,11,02,07,3.20
2010,07,11,02,08,1.60
2010,07,11,02,11,1.60
2010,07,11,02,12,1.60
2010,07,11,02,14,3.20
2010,07,11,02,15,1.60
2010,07,11,03,05,1.60
2010,07,11,03,07,1.60
2010,07,11,03,08,1.60
2010,07,11,03,10,1.60
2010,07,11,03,11,3.20
2010,07,11,03,30,1.60
2010,07,11,03,35,1.60
2010,07,11,03,36,1.60
2010,07,11,03,37,3.20
2010,07,11,03,38,4.80
2010,07,11,03,39,6.40
2010,07,11,03,40,4.80
2010,07,11,03,41,6.40
2010,07,11,03,42,4.80
2010,07,11,03,43,4.80
2010,07,11,03,44,4.80
2010,07,11,03,45,3.20
2010,07,11,03,53,3.20
2010,07,11,03,54,3.20
2010,07,11,03,55,3.20
2010,07,11,03,56,1.60
2010,07,11,04,37,1.60
2010,07,11,04,38,1.60
2010,07,11,05,39,1.60
2010,07,11,05,40,1.60
2010,07,11,05,41,1.60
2010,07,11,05,48,1.60
2010,07,11,05,52,3.20
2010,07,11,05,53,3.20
2010,07,11,05,55,1.60
2010,07,11,05,57,1.60
2010,07,11,05,58,1.60
2010,07,11,05,59,4.80
2010,07,11,06,00,4.80
2010,07,11,06,01,6.40
2010,07,11,06,02,4.80
2010,07,11,06,03,1.60
2010,07,11,06,04,1.60
2010,07,11,06,05,1.60
2010,07,11,06,07,3.20
2010,07,11,06,08,1.60
2010,07,11,06,29,1.60
2010,07,11,06,32,1.60
2010,07,11,06,33,3.20
2010,07,11,06,34,3.20
2010,07,11,06,39,1.60
2010,07,11,06,40,3.20
2010,07,11,06,41,4.80
2010,07,11,06,42,3.20
2010,07,11,06,43,1.60
2010,07,11,06,44,1.60
2010,07,11,06,45,1.60
2010,07,11,06,46,1.60
2010,07,11,06,47,3.20
2010,07,11,06,48,3.20
2010,07,11,06,49,4.80
2010,07,11,06,50,3.20
2010,07,11,06,51,3.20
2010,07,11,06,52,3.20
2010,07,11,06,53,1.60
2010,07,11,06,54,1.60
2010,07,11,06,55,3.20
2010,07,11,06,56,1.60
2010,07,11,06,57,1.60
2010,07,11,06,58,4.80
2010,07,11,06,59,3.20
2010,07,11,07,00,1.60
2010,07,11,07,01,1.60
2010,07,11,07,03,1.60
2010,07,11,07,04,1.60
2010,07,11,07,05,3.20
2010,07,11,07,06,1.60
2010,07,11,07,07,1.60
2010,07,11,07,08,1.60
2010,07,11,07,11,1.60
2010,07,11,07,13,3.20
2010,07,11,07,14,1.60
2010,07,11,07,15,1.60
2010,07,11,07,16,3.20
2010,07,11,07,17,3.20
2010,07,11,07,18,4.80
2010,07,11,07,19,1.60
2010,07,11,07,20,1.60
2010,07,11,07,23,1.60
2010,07,11,07,24,1.60
2010,07,11,07,25,1.60
2010,07,11,07,26,1.60
2010,07,11,07,30,1.60
2010,07,11,07,31,3.20
2010,07,11,07,32,3.20
2010,07,11,07,33,3.20
2010,07,11,07,34,1.60
2010,07,11,07,35,4.80
2010,07,11,07,36,3.20
2010,07,11,07,37,1.60
2010,07,11,07,38,4.80
2010,07,11,07,39,3.20
2010,07,11,07,40,1.60
2010,07,11,07,43,1.60
2010,07,11,07,45,1.60
2010,07,11,07,46,3.20
2010,07,11,07,48,3.20
2010,07,11,07,49,3.20
2010,07,11,07,50,3.20
2010,07,11,07,51,4.80
2010,07,11,07,52,3.20
2010,07,11,07,53,4.80
2010,07,11,07,54,6.40
2010,07,11,07,55,6.40
2010,07,11,07,56,6.40
2010,07,11,07,57,6.40
2010,07,11,07,58,4.80
2010,07,11,07,59,4.80
2010,07,11,08,00,6.40
2010,07,11,08,01,4.80
2010,07,11,08,02,4.80
2010,07,11,08,03,3.20
2010,07,11,08,04,4.80
2010,07,11,08,05,6.40
2010,07,11,08,06,4.80
2010,07,11,08,07,4.80
2010,07,11,08,08,4.80
2010,07,11,08,09,4.80
2010,07,11,08,10,4.80
2010,07,11,08,11,3.20
2010,07,11,08,12,1.60
2010,07,11,08,13,4.80
2010,07,11,08,14,4.80
2010,07,11,08,15,3.20
2010,07,11,08,16,3.20
2010,07,11,08,17,1.60
2010,07,11,08,18,3.20
2010,07,11,08,19,4.80
2010,07,11,08,20,4.80
2010,07,11,08,21,4.80
2010,07,11,08,22,4.80
2010,07,11,08,23,3.20
2010,07,11,08,24,1.60
2010,07,11,08,26,3.20
2010,07,11,08,27,4.80
2010,07,11,08,28,4.80
2010,07,11,08,29,4.80
2010,07,11,08,30,1.60
2010,07,11,08,32,3.20
2010,07,11,08,33,4.80
2010,07,11,08,34,3.20
2010,07,11,08,35,3.20
2010,07,11,08,36,3.20
2010,07,11,08,37,1.60
2010,07,11,08,38,1.60
2010,07,11,08,39,4.80
2010,07,11,08,40,4.80
2010,07,11,08,41,4.80
2010,07,11,08,42,4.80
2010,07,11,08,43,6.40
2010,07,11,08,44,4.80
2010,07,11,08,45,4.80
2010,07,11,08,46,6.40
2010,07,11,08,47,4.80
2010,07,11,08,48,6.40
2010,07,11,08,49,6.40
2010,07,11,08,50,6.40
2010,07,11,08,51,6.40
2010,07,11,08,52,8.10
2010,07,11,08,53,6.40
2010,07,11,08,54,6.40
2010,07,11,08,55,8.10
2010,07,11,08,56,6.40
2010,07,11,08,57,6.40
2010,07,11,08,58,4.80
2010,07,11,08,59,6.40
2010,07,11,09,00,4.80
2010,07,11,09,01,4.80
2010,07,11,09,02,4.80
2010,07,11,09,03,6.40
2010,07,11,09,04,6.40
2010,07,11,09,05,6.40
2010,07,11,09,06,8.10
2010,07,11,09,07,6.40
2010,07,11,09,08,6.40
2010,07,11,09,09,8.10
2010,07,11,09,10,8.10
2010,07,11,09,11,8.10
2010,07,11,09,12,8.10
2010,07,11,09,13,9.60
2010,07,11,09,14,11.30
2010,07,11,09,15,8.10
2010,07,11,09,16,8.10
2010,07,11,09,17,8.10
2010,07,11,09,18,8.10
2010,07,11,09,19,8.10
2010,07,11,09,20,8.10
2010,07,11,09,21,8.10
2010,07,11,09,22,8.10
2010,07,11,09,23,6.40
2010,07,11,09,24,6.40
2010,07,11,09,25,8.10
2010,07,11,09,26,9.60
2010,07,11,09,27,8.10
2010,07,11,09,28,6.40
2010,07,11,09,29,8.10
2010,07,11,09,30,8.10
2010,07,11,09,31,8.10
2010,07,11,09,32,8.10
2010,07,11,09,33,9.60
2010,07,11,09,34,9.60
2010,07,11,09,35,8.10
2010,07,11,09,36,8.10
2010,07,11,09,37,8.10
2010,07,11,09,38,8.10
2010,07,11,09,39,8.10
2010,07,11,09,40,8.10
2010,07,11,09,41,8.10
2010,07,11,09,42,8.10
2010,07,11,09,43,6.40
2010,07,11,09,44,8.10
2010,07,11,09,45,6.40
2010,07,11,09,46,8.10
2010,07,11,09,47,9.60
2010,07,11,09,48,6.40
2010,07,11,09,49,9.60
2010,07,11,09,50,9.60
2010,07,11,09,51,9.60
2010,07,11,09,52,11.30
2010,07,11,09,53,11.30
2010,07,11,09,54,8.10
2010,07,11,09,55,12.90
2010,07,11,09,56,11.30
2010,07,11,09,57,11.30
2010,07,11,09,58,12.90
2010,07,11,09,59,8.10
2010,07,11,10,00,4.80
2010,07,11,10,01,6.40
2010,07,11,10,02,9.60
2010,07,11,10,03,8.10
2010,07,11,10,04,6.40
2010,07,11,10,05,4.80
2010,07,11,10,06,6.40
2010,07,11,10,07,6.40
2010,07,11,10,08,8.10
2010,07,11,10,09,8.10
2010,07,11,10,10,6.40
2010,07,11,10,11,6.40
2010,07,11,10,12,8.10
2010,07,11,10,13,9.60
2010,07,11,10,14,6.40
2010,07,11,10,15,6.40
2010,07,11,10,16,11.30
2010,07,11,10,17,9.60
2010,07,11,10,18,9.60
2010,07,11,10,19,11.30
2010,07,11,10,20,9.60
2010,07,11,10,21,11.30
2010,07,11,10,22,9.60
2010,07,11,10,23,11.30
2010,07,11,10,24,16.10
2010,07,11,10,25,16.10
2010,07,11,10,26,14.50
2010,07,11,10,27,19.30
2010,07,11,10,28,16.10
2010,07,11,10,29,11.30
2010,07,11,10,30,11.30
2010,07,11,10,31,16.10
2010,07,11,10,32,9.60
2010,07,11,10,33,14.50
2010,07,11,10,34,9.60
2010,07,11,10,35,14.50
2010,07,11,10,36,11.30
2010,07,11,10,37,16.10
2010,07,11,10,38,16.10
2010,07,11,10,39,6.40
2010,07,11,10,40,14.50
2010,07,11,10,41,9.60
2010,07,11,10,42,16.10
2010,07,11,10,43,9.60
2010,07,11,10,44,6.40
2010,07,11,10,45,12.90
2010,07,11,10,46,12.90
2010,07,11,10,47,11.30
2010,07,11,10,48,8.10
2010,07,11,10,49,9.60
2010,07,11,10,50,17.70
2010,07,11,10,51,20.90
2010,07,11,10,52,14.50
2010,07,11,10,53,17.70
2010,07,11,10,54,11.30
2010,07,11,10,55,17.70
2010,07,11,10,56,19.30
2010,07,11,10,57,17.70
2010,07,11,10,58,16.10
2010,07,11,10,59,14.50
2010,07,11,11,00,20.90
2010,07,11,11,01,16.10
2010,07,11,11,02,17.70
2010,07,11,11,03,16.10
2010,07,11,11,04,11.30
2010,07,11,11,05,20.90
2010,07,11,11,06,17.70
2010,07,11,11,07,20.90
2010,07,11,11,08,20.90
2010,07,11,11,09,14.50
2010,07,11,11,10,19.30
2010,07,11,11,11,9.60
2010,07,11,11,12,17.70
2010,07,11,11,13,16.10
2010,07,11,11,14,20.90
2010,07,11,11,15,22.50
2010,07,11,11,16,20.90
2010,07,11,11,17,16.10
2010,07,11,11,18,17.70
2010,07,11,11,19,22.50
2010,07,11,11,20,19.30
2010,07,11,11,21,20.90
2010,07,11,11,22,17.70
2010,07,11,11,23,25.70
2010,07,11,11,24,22.50
2010,07,11,11,25,24.20
2010,07,11,11,26,24.20
2010,07,11,11,27,16.10
2010,07,11,11,28,20.90
2010,07,11,11,29,11.30
2010,07,11,11,30,20.90
2010,07,11,11,31,14.50
2010,07,11,11,32,29.00
2010,07,11,11,33,17.70
2010,07,11,11,34,19.30
2010,07,11,11,35,17.70
2010,07,11,11,36,17.70
2010,07,11,11,37,16.10
2010,07,11,11,38,29.00
2010,07,11,11,39,22.50
2010,07,11,11,40,22.50
2010,07,11,11,41,25.70
2010,07,11,11,42,22.50
2010,07,11,11,43,17.70
2010,07,11,11,44,25.70
2010,07,11,11,45,20.90
2010,07,11,11,46,16.10
2010,07,11,11,47,19.30
2010,07,11,11,48,24.20
2010,07,11,11,49,22.50
2010,07,11,11,50,27.40
2010,07,11,11,51,16.10
2010,07,11,11,52,20.90
2010,07,11,11,53,20.90
2010,07,11,11,54,22.50
2010,07,11,11,55,27.40
2010,07,11,11,56,20.90
2010,07,11,11,57,30.60
2010,07,11,11,58,25.70
2010,07,11,11,59,25.70
2010,07,11,12,00,25.70
2010,07,11,12,01,20.90
2010,07,11,12,02,20.90
2010,07,11,12,03,20.90
2010,07,11,12,04,22.50
2010,07,11,12,05,24.20
2010,07,11,12,06,22.50
2010,07,11,12,07,17.70
2010,07,11,12,08,24.20
2010,07,11,12,09,20.90
2010,07,11,12,10,14.50
2010,07,11,12,11,12.90
2010,07,11,12,12,11.30
2010,07,11,12,13,16.10
2010,07,11,12,14,19.30
2010,07,11,12,15,22.50
2010,07,11,12,16,27.40
2010,07,11,12,17,24.20
2010,07,11,12,18,20.90
2010,07,11,12,19,17.70
2010,07,11,12,20,20.90
2010,07,11,12,21,17.70
2010,07,11,12,22,22.50
2010,07,11,12,23,24.20
2010,07,11,12,24,19.30
2010,07,11,12,25,22.50
2010,07,11,12,26,8.10
2010,07,11,12,27,16.10
2010,07,11,12,28,14.50
2010,07,11,12,29,19.30
2010,07,11,12,30,24.20
2010,07,11,12,31,20.90
2010,07,11,12,32,17.70
2010,07,11,12,33,25.70
2010,07,11,12,34,17.70
2010,07,11,12,35,24.20
2010,07,11,12,36,24.20
2010,07,11,12,37,17.70
2010,07,11,12,38,22.50
2010,07,11,12,39,19.30
2010,07,11,12,40,24.20
2010,07,11,12,41,27.40
2010,07,11,12,42,25.70
2010,07,11,12,43,29.00
2010,07,11,12,44,25.70
2010,07,11,12,45,27.40
2010,07,11,12,46,25.70
2010,07,11,12,47,25.70
2010,07,11,12,48,25.70
2010,07,11,12,49,22.50
2010,07,11,12,50,20.90
2010,07,11,12,51,22.50
2010,07,11,12,52,20.90
2010,07,11,12,53,16.10
2010,07,11,12,54,17.70
2010,07,11,12,55,19.30
2010,07,11,12,56,22.50
2010,07,11,12,57,25.70
2010,07,11,12,58,20.90
2010,07,11,12,59,20.90
2010,07,11,13,00,19.30
2010,07,11,13,01,20.90
2010,07,11,13,02,24.20
2010,07,11,13,03,22.50
2010,07,11,13,04,17.70
2010,07,11,13,05,24.20
2010,07,11,13,06,22.50
2010,07,11,13,07,24.20
2010,07,11,13,08,27.40
2010,07,11,13,09,24.20
2010,07,11,13,10,22.50
2010,07,11,13,11,17.70
2010,07,11,13,12,22.50
2010,07,11,13,13,24.20
2010,07,11,13,14,17.70
2010,07,11,13,15,19.30
2010,07,11,13,16,27.40
2010,07,11,13,17,17.70
2010,07,11,13,18,17.70
2010,07,11,13,19,19.30
2010,07,11,13,20,25.70
2010,07,11,13,21,20.90
2010,07,11,13,22,19.30
2010,07,11,13,23,17.70
2010,07,11,13,24,17.70
2010,07,11,13,25,29.00
2010,07,11,13,26,24.20
2010,07,11,13,27,22.50
2010,07,11,13,28,22.50
2010,07,11,13,29,19.30
2010,07,11,13,30,22.50
2010,07,11,13,31,14.50
2010,07,11,13,32,22.50
2010,07,11,13,33,19.30
2010,07,11,13,34,16.10
2010,07,11,13,35,19.30
2010,07,11,13,36,17.70
2010,07,11,13,37,17.70
2010,07,11,13,38,24.20
2010,07,11,13,39,20.90
2010,07,11,13,40,17.70
2010,07,11,13,41,17.70
2010,07,11,13,42,20.90
2010,07,11,13,43,17.70
2010,07,11,13,44,16.10
2010,07,11,13,45,17.70
2010,07,11,13,46,16.10
2010,07,11,13,47,16.10
2010,07,11,13,48,19.30
2010,07,11,13,49,19.30
2010,07,11,13,50,16.10
2010,07,11,13,51,30.60
2010,07,11,13,52,27.40
2010,07,11,13,53,27.40
2010,07,11,13,54,25.70
2010,07,11,13,55,30.60
2010,07,11,13,56,24.20
2010,07,11,13,57,25.70
2010,07,11,13,58,24.20
2010,07,11,13,59,29.00
2010,07,11,14,00,29.00
2010,07,11,14,01,25.70
2010,07,11,14,02,27.40
2010,07,11,14,03,19.30
2010,07,11,14,04,29.00
2010,07,11,14,05,27.40
2010,07,11,14,06,24.20
2010,07,11,14,07,27.40
2010,07,11,14,08,32.20
2010,07,11,14,09,27.40
2010,07,11,14,10,33.80
2010,07,11,14,11,25.70
2010,07,11,14,12,29.00
2010,07,11,14,13,29.00
2010,07,11,14,14,24.20
2010,07,11,14,15,30.60
2010,07,11,14,16,22.50
2010,07,11,14,17,33.80
2010,07,11,14,18,14.50
2010,07,11,14,19,25.70
2010,07,11,14,20,22.50
2010,07,11,14,21,20.90
2010,07,11,14,22,19.30
2010,07,11,14,23,22.50
2010,07,11,14,24,27.40
2010,07,11,14,25,11.30
2010,07,11,14,26,22.50
2010,07,11,14,27,16.10
2010,07,11,14,28,16.10
2010,07,11,14,29,24.20
2010,07,11,14,30,24.20
2010,07,11,14,31,17.70
2010,07,11,14,32,24.20
2010,07,11,14,33,20.90
2010,07,11,14,34,24.20
2010,07,11,14,35,22.50
2010,07,11,14,36,24.20
2010,07,11,14,37,20.90
2010,07,11,14,38,30.60
2010,07,11,14,39,25.70
2010,07,11,14,40,24.20
2010,07,11,14,41,24.20
2010,07,11,14,42,29.00
2010,07,11,14,43,24.20
2010,07,11,14,44,24.20
2010,07,11,14,45,22.50
2010,07,11,14,46,20.90
2010,07,11,14,47,27.40
2010,07,11,14,48,25.70
2010,07,11,14,49,25.70
2010,07,11,14,50,29.00
2010,07,11,14,51,29.00
2010,07,11,14,52,25.70
2010,07,11,14,53,29.00
2010,07,11,14,54,30.60
2010,07,11,14,55,29.00
2010,07,11,14,56,29.00
2010,07,11,14,57,24.20
2010,07,11,14,58,25.70
2010,07,11,14,59,20.90
2010,07,11,15,00,25.70
2010,07,11,15,01,9.60
2010,07,11,15,02,24.20
2010,07,11,15,03,27.40
2010,07,11,15,04,29.00
2010,07,11,15,05,27.40
2010,07,11,15,06,27.40
2010,07,11,15,07,27.40
2010,07,11,15,08,32.20
2010,07,11,15,09,16.10
2010,07,11,15,10,22.50
2010,07,11,15,11,20.90
2010,07,11,15,12,17.70
2010,07,11,15,13,14.50
2010,07,11,15,14,14.50
2010,07,11,15,15,19.30
2010,07,11,15,16,24.20
2010,07,11,15,17,24.20
2010,07,11,15,18,22.50
2010,07,11,15,19,29.00
2010,07,11,15,20,25.70
2010,07,11,15,21,17.70
2010,07,11,15,22,20.90
2010,07,11,15,23,25.70
2010,07,11,15,24,22.50
2010,07,11,15,25,35.40
2010,07,11,15,26,29.00
2010,07,11,15,27,32.20
2010,07,11,15,28,30.60
2010,07,11,15,29,27.40
2010,07,11,15,30,32.20
2010,07,11,15,31,25.70
2010,07,11,15,32,27.40
2010,07,11,15,33,25.70
2010,07,11,15,34,17.70
2010,07,11,15,35,16.10
2010,07,11,15,36,24.20
2010,07,11,15,37,29.00
2010,07,11,15,38,27.40
2010,07,11,15,39,29.00
2010,07,11,15,40,24.20
2010,07,11,15,41,25.70
2010,07,11,15,42,25.70
2010,07,11,15,43,24.20
2010,07,11,15,44,22.50
2010,07,11,15,45,29.00
2010,07,11,15,46,24.20
2010,07,11,15,47,29.00
2010,07,11,15,48,25.70
2010,07,11,15,49,24.20
2010,07,11,15,50,22.50
2010,07,11,15,51,24.20
2010,07,11,15,52,29.00
2010,07,11,15,53,19.30
2010,07,11,15,54,22.50
2010,07,11,15,55,25.70
2010,07,11,15,56,22.50
2010,07,11,15,57,24.20
2010,07,11,15,58,33.80
2010,07,11,15,59,30.60
2010,07,11,16,00,19.30
2010,07,11,16,01,11.30
2010,07,11,16,02,27.40
2010,07,11,16,03,19.30
2010,07,11,16,04,29.00
2010,07,11,16,05,27.40
2010,07,11,16,06,24.20
2010,07,11,16,07,29.00
2010,07,11,16,08,27.40
2010,07,11,16,09,27.40
2010,07,11,16,10,20.90
2010,07,11,16,11,33.80
2010,07,11,16,12,25.70
2010,07,11,16,13,30.60
2010,07,11,16,14,30.60
2010,07,11,16,15,32.20
2010,07,11,16,16,27.40
2010,07,11,16,17,22.50
2010,07,11,16,18,20.90
2010,07,11,16,19,22.50
2010,07,11,16,20,29.00
2010,07,11,16,21,32.20
2010,07,11,16,22,25.70
2010,07,11,16,23,20.90
2010,07,11,16,24,27.40
2010,07,11,16,25,22.50
2010,07,11,16,26,25.70
2010,07,11,16,27,20.90
2010,07,11,16,28,19.30
2010,07,11,16,29,25.70
2010,07,11,16,30,22.50
2010,07,11,16,31,24.20
2010,07,11,16,32,24.20
2010,07,11,16,33,27.40
2010,07,11,16,34,35.40
2010,07,11,16,35,22.50
2010,07,11,16,36,25.70
2010,07,11,16,37,20.90
2010,07,11,16,38,22.50
2010,07,11,16,39,29.00
2010,07,11,16,40,24.20
2010,07,11,16,41,20.90
2010,07,11,16,42,20.90
2010,07,11,16,43,19.30
2010,07,11,16,44,25.70
2010,07,11,16,45,19.30
2010,07,11,16,46,35.40
2010,07,11,16,47,22.50
2010,07,11,16,48,25.70
2010,07,11,16,49,22.50
2010,07,11,16,50,20.90
2010,07,11,16,51,24.20
2010,07,11,16,52,25.70
2010,07,11,16,53,24.20
2010,07,11,16,54,25.70
2010,07,11,16,55,24.20
2010,07,11,16,56,20.90
2010,07,11,16,57,20.90
2010,07,11,16,58,22.50
2010,07,11,16,59,19.30
2010,07,11,17,00,25.70
2010,07,11,17,01,17.70
2010,07,11,17,02,19.30
2010,07,11,17,03,24.20
2010,07,11,17,04,22.50
2010,07,11,17,05,24.20
2010,07,11,17,06,25.70
2010,07,11,17,07,24.20
2010,07,11,17,08,25.70
2010,07,11,17,09,27.40
2010,07,11,17,10,20.90
2010,07,11,17,11,24.20
2010,07,11,17,12,25.70
2010,07,11,17,13,24.20
2010,07,11,17,14,30.60
2010,07,11,17,15,20.90
2010,07,11,17,16,24.20
2010,07,11,17,17,16.10
2010,07,11,17,18,22.50
2010,07,11,17,19,19.30
2010,07,11,17,20,24.20
2010,07,11,17,21,24.20
2010,07,11,17,22,12.90
2010,07,11,17,23,24.20
2010,07,11,17,24,24.20
2010,07,11,17,25,17.70
2010,07,11,17,26,14.50
2010,07,11,17,27,24.20
2010,07,11,17,28,11.30
2010,07,11,17,29,24.20
2010,07,11,17,30,24.20
2010,07,11,17,31,27.40
2010,07,11,17,32,22.50
2010,07,11,17,33,22.50
2010,07,11,17,34,30.60
2010,07,11,17,35,27.40
2010,07,11,17,36,22.50
2010,07,11,17,37,25.70
2010,07,11,17,38,24.20
2010,07,11,17,39,32.20
2010,07,11,17,40,20.90
2010,07,11,17,41,24.20
2010,07,11,17,42,29.00
2010,07,11,17,43,27.40
2010,07,11,17,44,29.00
2010,07,11,17,45,29.00
2010,07,11,17,46,30.60
2010,07,11,17,47,27.40
2010,07,11,17,48,27.40
2010,07,11,17,49,29.00
2010,07,11,17,50,27.40
2010,07,11,17,51,25.70
2010,07,11,17,52,27.40
2010,07,11,17,53,20.90
2010,07,11,17,54,24.20
2010,07,11,17,55,25.70
2010,07,11,17,56,24.20
2010,07,11,17,57,25.70
2010,07,11,17,58,25.70
2010,07,11,17,59,24.20
2010,07,11,18,00,17.70
2010,07,11,18,01,22.50
2010,07,11,18,02,19.30
2010,07,11,18,03,20.90
2010,07,11,18,04,19.30
2010,07,11,18,05,19.30
2010,07,11,18,06,14.50
2010,07,11,18,07,16.10
2010,07,11,18,08,19.30
2010,07,11,18,09,24.20
2010,07,11,18,10,8.10
2010,07,11,18,11,9.60
2010,07,11,18,12,17.70
2010,07,11,18,13,12.90
2010,07,11,18,14,11.30
2010,07,11,18,15,17.70
2010,07,11,18,16,19.30
2010,07,11,18,17,19.30
2010,07,11,18,18,16.10
2010,07,11,18,19,19.30
2010,07,11,18,20,14.50
2010,07,11,18,21,17.70
2010,07,11,18,22,30.60
2010,07,11,18,23,19.30
2010,07,11,18,24,16.10
2010,07,11,18,25,11.30
2010,07,11,18,26,16.10
2010,07,11,18,27,12.90
2010,07,11,18,28,17.70
2010,07,11,18,29,14.50
2010,07,11,18,30,17.70
2010,07,11,18,31,32.20
2010,07,11,18,32,33.80
2010,07,11,18,33,19.30
2010,07,11,18,34,11.30
2010,07,11,18,35,14.50
2010,07,11,18,36,19.30
2010,07,11,18,37,22.50
2010,07,11,18,38,35.40
2010,07,11,18,39,11.30
2010,07,11,18,40,17.70
2010,07,11,18,41,19.30
2010,07,11,18,42,11.30
2010,07,11,18,43,19.30
2010,07,11,18,44,19.30
2010,07,11,18,45,24.20
2010,07,11,18,46,16.10
2010,07,11,18,47,11.30
2010,07,11,18,48,11.30
2010,07,11,18,49,22.50
2010,07,11,18,50,19.30
2010,07,11,18,51,16.10
2010,07,11,18,52,17.70
2010,07,11,18,53,29.00
2010,07,11,18,54,22.50
2010,07,11,18,55,24.20
2010,07,11,18,56,25.70
2010,07,11,18,57,20.90
2010,07,11,18,58,19.30
2010,07,11,18,59,20.90
2010,07,11,19,00,16.10
2010,07,11,19,01,24.20
2010,07,11,19,02,19.30
2010,07,11,19,03,27.40
2010,07,11,19,04,17.70
2010,07,11,19,05,29.00
2010,07,11,19,06,22.50
2010,07,11,19,07,25.70
2010,07,11,19,08,25.70
2010,07,11,19,09,30.60
2010,07,11,19,10,24.20
2010,07,11,19,11,30.60
2010,07,11,19,12,8.10
2010,07,11,19,13,19.30
2010,07,11,19,14,24.20
2010,07,11,19,15,17.70
2010,07,11,19,16,24.20
2010,07,11,19,17,19.30
2010,07,11,19,18,16.10
2010,07,11,19,19,17.70
2010,07,11,19,20,20.90
2010,07,11,19,21,27.40
2010,07,11,19,22,30.60
2010,07,11,19,23,20.90
2010,07,11,19,24,16.10
2010,07,11,19,25,16.10
2010,07,11,19,26,27.40
2010,07,11,19,27,20.90
2010,07,11,19,28,25.70
2010,07,11,19,29,25.70
2010,07,11,19,30,19.30
2010,07,11,19,31,14.50
2010,07,11,19,32,25.70
2010,07,11,19,33,20.90
2010,07,11,19,34,17.70
2010,07,11,19,35,24.20
2010,07,11,19,36,25.70
2010,07,11,19,37,25.70
2010,07,11,19,38,24.20
2010,07,11,19,39,30.60
2010,07,11,19,40,20.90
2010,07,11,19,41,19.30
2010,07,11,19,42,22.50
2010,07,11,19,43,24.20
2010,07,11,19,44,14.50
2010,07,11,19,45,32.20
2010,07,11,19,46,24.20
2010,07,11,19,47,20.90
2010,07,11,19,48,29.00
2010,07,11,19,49,20.90
2010,07,11,19,50,25.70
2010,07,11,19,51,30.60
2010,07,11,19,52,40.20
2010,07,11,19,53,32.20
2010,07,11,19,54,29.00
2010,07,11,19,55,24.20
2010,07,11,19,56,30.60
2010,07,11,19,57,24.20
2010,07,11,19,58,24.20
2010,07,11,19,59,29.00
2010,07,11,20,00,32.20
2010,07,11,20,01,27.40
2010,07,11,20,02,30.60
2010,07,11,20,03,35.40
2010,07,11,20,04,32.20
2010,07,11,20,05,35.40
2010,07,11,20,06,32.20
2010,07,11,20,07,24.20
2010,07,11,20,08,32.20
2010,07,11,20,09,35.40
2010,07,11,20,10,25.70
2010,07,11,20,11,30.60
2010,07,11,20,12,33.80
2010,07,11,20,13,22.50
2010,07,11,20,14,35.40
2010,07,11,20,15,40.20
2010,07,11,20,16,32.20
2010,07,11,20,17,27.40
2010,07,11,20,18,32.20
2010,07,11,20,19,29.00
2010,07,11,20,20,33.80
2010,07,11,20,21,27.40
2010,07,11,20,22,37.00
2010,07,11,20,23,25.70
2010,07,11,20,24,29.00
2010,07,11,20,25,25.70
2010,07,11,20,26,27.40
2010,07,11,20,27,32.20
2010,07,11,20,28,32.20
2010,07,11,20,29,27.40
2010,07,11,20,30,24.20
2010,07,11,20,31,24.20
2010,07,11,20,32,22.50
2010,07,11,20,33,24.20
2010,07,11,20,34,35.40
2010,07,11,20,35,35.40
2010,07,11,20,36,30.60
2010,07,11,20,37,35.40
2010,07,11,20,38,25.70
2010,07,11,20,39,27.40
2010,07,11,20,40,30.60
2010,07,11,20,41,22.50
2010,07,11,20,42,20.90
2010,07,11,20,43,22.50
2010,07,11,20,44,19.30
2010,07,11,20,45,19.30
2010,07,11,20,46,12.90
2010,07,11,20,47,22.50
2010,07,11,20,48,25.70
2010,07,11,20,49,30.60
2010,07,11,20,50,24.20
2010,07,11,20,51,19.30
2010,07,11,20,52,16.10
2010,07,11,20,53,20.90
2010,07,11,20,54,20.90
2010,07,11,20,55,22.50
2010,07,11,20,56,14.50
2010,07,11,20,57,11.30
2010,07,11,20,58,20.90
2010,07,11,20,59,22.50
2010,07,11,21,00,19.30
2010,07,11,21,01,25.70
2010,07,11,21,02,27.40
2010,07,11,21,03,22.50
2010,07,11,21,04,25.70
2010,07,11,21,05,20.90
2010,07,11,21,06,22.50
2010,07,11,21,07,20.90
2010,07,11,21,08,22.50
2010,07,11,21,09,22.50
2010,07,11,21,10,37.00
2010,07,11,21,11,37.00
2010,07,11,21,12,25.70
2010,07,11,21,13,29.00
2010,07,11,21,14,27.40
2010,07,11,21,15,32.20
2010,07,11,21,16,35.40
2010,07,11,21,17,25.70
2010,07,11,21,18,30.60
2010,07,11,21,19,19.30
2010,07,11,21,20,16.10
2010,07,11,21,21,41.80
2010,07,11,21,22,29.00
2010,07,11,21,23,37.00
2010,07,11,21,24,25.70
2010,07,11,21,25,27.40
2010,07,11,21,26,20.90
2010,07,11,21,27,38.60
2010,07,11,21,28,19.30
2010,07,11,21,29,29.00
2010,07,11,21,30,33.80
2010,07,11,21,31,38.60
2010,07,11,21,32,30.60
2010,07,11,21,33,20.90
2010,07,11,21,34,33.80
2010,07,11,21,35,29.00
2010,07,11,21,36,32.20
2010,07,11,21,37,33.80
2010,07,11,21,38,37.00
2010,07,11,21,39,32.20
2010,07,11,21,40,29.00
2010,07,11,21,41,30.60
2010,07,11,21,42,32.20
2010,07,11,21,43,29.00
2010,07,11,21,44,30.60
2010,07,11,21,45,37.00
2010,07,11,21,46,27.40
2010,07,11,21,47,32.20
2010,07,11,21,48,35.40
2010,07,11,21,49,30.60
2010,07,11,21,50,32.20
2010,07,11,21,51,29.00
2010,07,11,21,52,29.00
2010,07,11,21,53,37.00
2010,07,11,21,54,38.60
2010,07,11,21,55,40.20
2010,07,11,21,56,35.40
2010,07,11,21,57,46.70
2010,07,11,21,58,37.00
2010,07,11,21,59,38.60
2010,07,11,22,00,35.40
2010,07,11,22,01,43.50
2010,07,11,22,02,40.20
2010,07,11,22,03,33.80
2010,07,11,22,04,37.00
2010,07,11,22,05,27.40
2010,07,11,22,06,38.60
2010,07,11,22,07,35.40
2010,07,11,22,08,45.10
2010,07,11,22,09,37.00
2010,07,11,22,10,33.80
2010,07,11,22,11,41.80
2010,07,11,22,12,37.00
2010,07,11,22,13,45.10
2010,07,11,22,14,38.60
2010,07,11,22,15,48.30
2010,07,11,22,16,33.80
2010,07,11,22,17,35.40
2010,07,11,22,18,35.40
2010,07,11,22,19,38.60
2010,07,11,22,20,30.60
2010,07,11,22,21,35.40
2010,07,11,22,22,38.60
2010,07,11,22,23,40.20
2010,07,11,22,24,51.50
2010,07,11,22,25,41.80
2010,07,11,22,26,37.00
2010,07,11,22,27,32.20
2010,07,11,22,28,40.20
2010,07,11,22,29,38.60